This is the latest recevied weather packets stored in our database for station/object KF7SOJ. If no packets are shown the sender has not sent any weather packets the latest 10 day(s).
| Time | Temp. | Humidity | Pressure | Rain* | Wind** | Luminosity | Snow |
|---|---|---|---|---|---|---|---|
| 1777434112 | 7.22° C | 66% | 934.4 hPa | 0 mm | - | 0 W/m² | - |
| 1777433809 | 7.22° C | 67% | 934.4 hPa | 0 mm | - | 0 W/m² | - |
| 1777433505 | 6.67° C | 66% | 934.4 hPa | 0 mm | - | 0 W/m² | - |
| 1777433200 | 7.22° C | 66% | 934.4 hPa | 0 mm | - | 0 W/m² | - |
| 1777432897 | 7.22° C | 65% | 934.4 hPa | 0 mm | - | 0 W/m² | - |
| 1777432596 | 7.22° C | 64% | 934.2 hPa | 0 mm | - | 0 W/m² | - |
| 1777432294 | 7.22° C | 65% | 934.2 hPa | 0 mm | - | 0 W/m² | - |
| 1777431992 | 7.22° C | 65% | 934.1 hPa | 0 mm | - | 0 W/m² | - |
| 1777431689 | 7.78° C | 64% | 933.9 hPa | 0 mm | - | 0 W/m² | - |
| 1777431385 | 7.78° C | 63% | 933.9 hPa | 0 mm | - | 0 W/m² | - |
| 1777431081 | 8.33° C | 63% | 934 hPa | 0 mm | - | 0 W/m² | - |
| 1777430777 | 8.33° C | 61% | 933.6 hPa | 0 mm | - | 0 W/m² | - |
| 1777430474 | 8.33° C | 61% | 933.8 hPa | 0 mm | - | 0 W/m² | - |
| 1777430169 | 8.33° C | 61% | 933.8 hPa | 0 mm | - | 0 W/m² | - |
| 1777429864 | 8.33° C | 60% | 933.8 hPa | 0 mm | - | 0 W/m² | - |
| 1777429561 | 8.89° C | 58% | 933.8 hPa | 0 mm | - | 1 W/m² | - |
| 1777429257 | 8.89° C | 56% | 933.7 hPa | 0 mm | - | 2 W/m² | - |
| 1777428952 | 8.89° C | 55% | 933.8 hPa | 0 mm | - | 4 W/m² | - |
| 1777428649 | 8.33° C | 58% | 933.6 hPa | 0 mm | - | 5 W/m² | - |
| 1777428345 | 7.78° C | 61% | 933.6 hPa | 0 mm | - | 8 W/m² | - |
| 1777428040 | 8.33° C | 60% | 933.5 hPa | 0 mm | - | 11 W/m² | - |
| 1777427736 | 8.33° C | 59% | 933.5 hPa | 0 mm | - | 16 W/m² | - |
| 1777427434 | 8.89° C | 57% | 933.5 hPa | 0 mm | - | 20 W/m² | - |
| 1777427129 | 8.89° C | 57% | 933.6 hPa | 0 mm | - | 26 W/m² | - |
| 1777426828 | 9.44° C | 55% | 933.5 hPa | 0 mm | - | 33 W/m² | - |
* Rain latest hour (hover to see other rain measurements)
** Current wind speed in m/s (hover to see current wind gust speed)